THA417 VTBS-WMKK

Flight info

Callsign THA417
Flight time 1h 52m
Altitude 37000
Route BUT1J BUT Y11 PASVA Y514 EMPUR/N0482F380 G466 PULIP PULIP1G
Aircraft B789/H-SDE2E3GHIJ1J4J5M1RWYZ/LB1D1

Departure

Time 2026-04-30 12:08
Airport Suvarnabhumi Airport (VTBS)

Arrival

Time 2026-04-30 14:00
Airport Kuala Lumpur International Airport (WMKK)
Time Latitude Longitude Altitude Speed Heading
2026-04-30 11:45 13.68678 100.75227 18 ft 0 kts 104°
2026-04-30 11:58 13.68683 100.75209 18 ft 4 kts 105°
2026-04-30 11:59 13.68690 100.75185 20 ft 4 kts 114°
2026-04-30 11:59 13.68701 100.75167 18 ft 4 kts 149°
2026-04-30 11:59 13.68711 100.75164 20 ft 3 kts 194°
2026-04-30 11:59 13.68736 100.75171 19 ft 4 kts 194°
2026-04-30 12:00 13.68741 100.75172 19 ft 0 kts 194°
2026-04-30 12:02 13.68725 100.75168 18 ft 4 kts 194°
2026-04-30 12:02 13.68696 100.75160 18 ft 5 kts 194°
2026-04-30 12:02 13.68660 100.75151 18 ft 6 kts 194°
2026-04-30 12:03 13.68618 100.75144 18 ft 6 kts 172°
2026-04-30 12:03 13.68571 100.75191 18 ft 4 kts 105°
2026-04-30 12:03 13.68564 100.75221 18 ft 5 kts 104°
2026-04-30 12:04 13.68555 100.75258 18 ft 7 kts 104°
2026-04-30 12:04 13.68543 100.75308 18 ft 8 kts 104°
2026-04-30 12:04 13.68527 100.75368 18 ft 13 kts 104°
2026-04-30 12:04 13.68496 100.75490 18 ft 21 kts 104°
2026-04-30 12:05 13.68463 100.75623 18 ft 20 kts 104°
2026-04-30 12:05 13.68466 100.75719 20 ft 7 kts 53°
2026-04-30 12:05 13.68504 100.75738 19 ft 15 kts 15°
2026-04-30 12:05 13.68617 100.75767 19 ft 18 kts 14°
2026-04-30 12:06 13.68731 100.75798 19 ft 18 kts 14°
2026-04-30 12:06 13.68848 100.75828 19 ft 18 kts 14°
2026-04-30 12:06 13.68961 100.75858 19 ft 18 kts 14°
2026-04-30 12:06 13.69067 100.75894 19 ft 13 kts 40°
2026-04-30 12:07 13.69080 100.75963 18 ft 10 kts 102°
2026-04-30 12:07 13.69069 100.76005 18 ft 10 kts 105°
2026-04-30 12:07 13.69040 100.76061 19 ft 4 kts 150°
2026-04-30 12:07 13.69015 100.76064 18 ft 7 kts 182°
2026-04-30 12:08 13.68872 100.76025 20 ft 51 kts 194°
2026-04-30 12:08 13.68281 100.75871 19 ft 129 kts 195°
2026-04-30 12:08 13.67221 100.75588 87 ft 187 kts 195°
2026-04-30 12:08 13.66063 100.75285 1113 ft 174 kts 192°
2026-04-30 12:09 13.64853 100.75228 1837 ft 194 kts 180°
2026-04-30 12:09 13.63656 100.75248 2289 ft 215 kts 179°
2026-04-30 12:09 13.62184 100.75257 3014 ft 227 kts 178°
2026-04-30 12:09 13.60734 100.75251 3508 ft 213 kts 175°
2026-04-30 12:10 13.59197 100.75689 3523 ft 258 kts 160°
2026-04-30 12:10 13.57570 100.76154 4607 ft 261 kts 165°
2026-04-30 12:10 13.55822 100.76608 5861 ft 266 kts 164°
2026-04-30 12:10 13.54713 100.76918 6633 ft 271 kts 164°
2026-04-30 12:11 13.53022 100.77408 7613 ft 275 kts 164°
2026-04-30 12:11 13.50577 100.78115 8930 ft 282 kts 165°
2026-04-30 12:11 13.49379 100.78457 9581 ft 288 kts 165°
2026-04-30 12:11 13.47879 100.78883 9931 ft 308 kts 165°
2026-04-30 12:12 13.45437 100.79581 10029 ft 340 kts 165°
2026-04-30 12:12 13.44028 100.79986 10035 ft 344 kts 165°
2026-04-30 12:12 13.41815 100.80622 10034 ft 347 kts 165°
2026-04-30 12:12 13.39594 100.81256 10033 ft 348 kts 166°
2026-04-30 12:13 13.37523 100.81536 10042 ft 347 kts 181°
2026-04-30 12:13 13.35262 100.81509 10026 ft 348 kts 180°
2026-04-30 12:13 13.33043 100.81521 10023 ft 349 kts 180°
2026-04-30 12:13 13.30747 100.81529 10025 ft 348 kts 180°
2026-04-30 12:14 13.28529 100.81526 10022 ft 348 kts 180°
2026-04-30 12:14 13.26227 100.81520 10447 ft 349 kts 180°
2026-04-30 12:14 13.24057 100.81516 11397 ft 350 kts 180°
2026-04-30 12:14 13.21725 100.81515 12251 ft 355 kts 180°
2026-04-30 12:15 13.19485 100.81513 13085 ft 360 kts 180°
2026-04-30 12:15 13.17088 100.81510 13940 ft 364 kts 180°
2026-04-30 12:15 13.14665 100.81507 14708 ft 369 kts 180°
2026-04-30 12:15 13.12380 100.81504 15441 ft 374 kts 180°
2026-04-30 12:16 13.09953 100.81504 16177 ft 378 kts 179°
2026-04-30 12:16 13.07487 100.81872 16880 ft 383 kts 162°
2026-04-30 12:16 13.05109 100.82843 17539 ft 389 kts 157°
2026-04-30 12:16 13.02779 100.83903 18237 ft 393 kts 156°
2026-04-30 12:17 12.98101 100.86036 19438 ft 401 kts 157°
2026-04-30 12:17 12.95761 100.87063 20032 ft 405 kts 157°
2026-04-30 12:17 12.93237 100.88182 20662 ft 409 kts 156°
2026-04-30 12:18 12.90734 100.89309 21260 ft 413 kts 156°
2026-04-30 12:18 12.88346 100.90380 21801 ft 417 kts 157°
2026-04-30 12:18 12.85823 100.91504 22381 ft 421 kts 157°
2026-04-30 12:18 12.83301 100.92626 22918 ft 426 kts 157°
2026-04-30 12:19 12.80763 100.93760 23448 ft 430 kts 157°
2026-04-30 12:19 12.78153 100.94926 23879 ft 434 kts 157°
2026-04-30 12:19 12.75582 100.96073 24298 ft 438 kts 157°
2026-04-30 12:19 12.73008 100.97220 24697 ft 442 kts 157°
2026-04-30 12:20 12.70325 100.98415 25102 ft 446 kts 157°
2026-04-30 12:20 12.67715 100.99579 25527 ft 449 kts 158°
2026-04-30 12:20 12.64978 101.00546 25898 ft 451 kts 165°
2026-04-30 12:20 12.62117 101.01354 26278 ft 455 kts 165°
2026-04-30 12:21 12.59376 101.02120 26677 ft 458 kts 165°
2026-04-30 12:21 12.56639 101.02897 27039 ft 462 kts 165°
2026-04-30 12:21 12.53630 101.03763 27454 ft 465 kts 165°
2026-04-30 12:21 12.50704 101.04601 27826 ft 469 kts 165°
2026-04-30 12:22 12.48070 101.05348 28158 ft 472 kts 165°
2026-04-30 12:22 12.44959 101.06230 28544 ft 475 kts 165°
2026-04-30 12:22 12.41928 101.07094 28907 ft 479 kts 165°
2026-04-30 12:22 12.39000 101.07929 29250 ft 482 kts 165°
2026-04-30 12:23 12.35947 101.08611 29576 ft 483 kts 176°
2026-04-30 12:23 12.32924 101.08717 29886 ft 484 kts 182°
2026-04-30 12:23 12.29820 101.08685 30147 ft 488 kts 182°
2026-04-30 12:23 12.26647 101.08650 30482 ft 489 kts 182°
2026-04-30 12:24 12.23469 101.08627 30783 ft 491 kts 182°
2026-04-30 12:24 12.20235 101.08608 31089 ft 493 kts 182°
2026-04-30 12:24 12.16974 101.08585 31375 ft 495 kts 182°
2026-04-30 12:24 12.14230 101.08560 31629 ft 496 kts 182°
2026-04-30 12:25 12.10971 101.08533 31903 ft 498 kts 182°
2026-04-30 12:25 12.07727 101.08509 32183 ft 500 kts 182°
2026-04-30 12:25 12.04439 101.08486 32442 ft 502 kts 182°
2026-04-30 12:25 12.01135 101.08460 32708 ft 503 kts 182°
2026-04-30 12:26 11.97788 101.08433 32962 ft 505 kts 182°
2026-04-30 12:26 11.94488 101.08408 33209 ft 507 kts 183°
2026-04-30 12:26 11.91099 101.08382 33465 ft 508 kts 183°
2026-04-30 12:26 11.87717 101.08356 33693 ft 510 kts 183°
2026-04-30 12:27 11.84462 101.08331 33992 ft 510 kts 183°
2026-04-30 12:27 11.81314 101.08307 34248 ft 509 kts 183°
2026-04-30 12:27 11.78120 101.08283 34509 ft 509 kts 183°
2026-04-30 12:27 11.74706 101.08257 34797 ft 509 kts 183°
2026-04-30 12:28 11.71741 101.08234 35039 ft 508 kts 183°
2026-04-30 12:28 11.68352 101.08208 35316 ft 508 kts 183°
2026-04-30 12:28 11.65041 101.08200 35584 ft 509 kts 179°
2026-04-30 12:28 11.61859 101.08595 35848 ft 511 kts 172°
2026-04-30 12:29 11.58538 101.09220 36040 ft 512 kts 172°
2026-04-30 12:29 11.55031 101.09875 36322 ft 511 kts 172°
2026-04-30 12:29 11.51863 101.10463 36576 ft 511 kts 172°
2026-04-30 12:29 11.48642 101.11059 36837 ft 510 kts 172°
2026-04-30 12:30 11.42279 101.12241 36878 ft 514 kts 172°
2026-04-30 12:30 11.35945 101.13419 36881 ft 509 kts 172°
2026-04-30 12:31 11.29635 101.14587 36878 ft 508 kts 172°
2026-04-30 12:31 11.22972 101.15825 36880 ft 508 kts 172°
2026-04-30 12:32 11.16509 101.17022 36882 ft 509 kts 172°
2026-04-30 12:32 11.10065 101.18216 36887 ft 509 kts 172°
2026-04-30 12:33 11.03598 101.19414 36882 ft 509 kts 172°
2026-04-30 12:33 10.97180 101.20602 36882 ft 509 kts 172°
2026-04-30 12:34 10.90622 101.21816 36883 ft 509 kts 172°
2026-04-30 12:34 10.84083 101.23025 36882 ft 508 kts 172°
2026-04-30 12:35 10.77636 101.24217 36884 ft 508 kts 172°
2026-04-30 12:35 10.70947 101.25453 36884 ft 508 kts 172°
2026-04-30 12:36 10.64421 101.26659 36884 ft 508 kts 172°
2026-04-30 12:36 10.57791 101.27883 36884 ft 507 kts 172°
2026-04-30 12:37 10.51188 101.29101 36882 ft 507 kts 172°
2026-04-30 12:37 10.44632 101.30311 36880 ft 507 kts 172°
2026-04-30 12:38 10.37992 101.31535 36886 ft 508 kts 172°
2026-04-30 12:38 10.31480 101.32739 36885 ft 507 kts 172°
2026-04-30 12:39 10.24866 101.33967 36884 ft 506 kts 172°
2026-04-30 12:39 10.18249 101.35190 36887 ft 506 kts 172°
2026-04-30 12:40 10.11720 101.36400 36887 ft 507 kts 171°
2026-04-30 12:40 10.05097 101.37625 36883 ft 507 kts 171°
2026-04-30 12:41 9.98592 101.38828 36888 ft 506 kts 171°
2026-04-30 12:41 9.92080 101.40032 36884 ft 506 kts 171°
2026-04-30 12:42 9.85475 101.41253 36888 ft 507 kts 171°
2026-04-30 12:42 9.78853 101.42476 36889 ft 507 kts 171°
2026-04-30 12:43 9.72342 101.43679 36883 ft 506 kts 171°
2026-04-30 12:43 9.65771 101.44892 36883 ft 505 kts 171°
2026-04-30 12:44 9.59178 101.46108 36884 ft 505 kts 171°
2026-04-30 12:44 9.52631 101.47316 36886 ft 505 kts 171°
2026-04-30 12:45 9.46041 101.48531 36886 ft 505 kts 171°
2026-04-30 12:45 9.39521 101.49733 36880 ft 505 kts 171°
2026-04-30 12:46 9.32894 101.50954 36887 ft 505 kts 171°
2026-04-30 12:46 9.26297 101.52168 36883 ft 506 kts 171°
2026-04-30 12:47 9.19697 101.53383 36886 ft 506 kts 170°
2026-04-30 12:47 9.13201 101.54579 36884 ft 505 kts 170°
2026-04-30 12:48 9.06578 101.55797 36883 ft 505 kts 170°
2026-04-30 12:48 8.99982 101.57010 36884 ft 505 kts 170°
2026-04-30 12:49 8.93398 101.58221 36890 ft 505 kts 170°
2026-04-30 12:49 8.87954 101.59224 36883 ft 505 kts 170°
2026-04-30 12:50 8.81385 101.60432 36886 ft 504 kts 170°
2026-04-30 12:50 8.74814 101.61641 36884 ft 504 kts 170°
2026-04-30 12:51 8.68221 101.62853 36892 ft 505 kts 170°
2026-04-30 12:51 8.61603 101.64070 36891 ft 505 kts 170°
2026-04-30 12:52 8.55216 101.65244 36893 ft 504 kts 170°
2026-04-30 12:52 8.48592 101.66460 36887 ft 504 kts 170°
2026-04-30 12:53 8.42038 101.67664 36889 ft 504 kts 170°
2026-04-30 12:53 8.35443 101.68874 36889 ft 504 kts 170°
2026-04-30 12:54 8.28963 101.70063 36882 ft 504 kts 170°
2026-04-30 12:54 8.22363 101.71274 36888 ft 504 kts 170°
2026-04-30 12:55 8.16200 101.72404 36887 ft 504 kts 170°
2026-04-30 12:55 8.09719 101.73592 36881 ft 504 kts 170°
2026-04-30 12:56 8.03354 101.74759 36885 ft 504 kts 170°
2026-04-30 12:56 7.96916 101.75952 36885 ft 504 kts 169°
2026-04-30 12:57 7.90324 101.77175 36881 ft 503 kts 169°
2026-04-30 12:57 7.83744 101.78391 36881 ft 503 kts 169°
2026-04-30 12:58 7.77273 101.79591 36882 ft 503 kts 169°
2026-04-30 12:58 7.70819 101.80784 36882 ft 502 kts 169°
2026-04-30 12:59 7.66744 101.81539 36881 ft 502 kts 169°
2026-04-30 12:59 7.64181 101.82013 36886 ft 502 kts 169°
2026-04-30 13:00 7.57891 101.83176 36884 ft 502 kts 169°
2026-04-30 13:00 7.51355 101.84385 36886 ft 501 kts 169°
2026-04-30 13:01 7.44949 101.85569 36886 ft 501 kts 169°
2026-04-30 13:01 7.38486 101.86763 36884 ft 500 kts 169°
2026-04-30 13:02 7.32082 101.87946 36885 ft 500 kts 169°
2026-04-30 13:02 7.25757 101.89114 36885 ft 500 kts 169°
2026-04-30 13:03 7.19240 101.90317 36887 ft 499 kts 169°
2026-04-30 13:03 7.12762 101.91513 36886 ft 499 kts 169°
2026-04-30 13:04 7.06438 101.92680 36886 ft 499 kts 169°
2026-04-30 13:04 6.99995 101.93869 36891 ft 499 kts 169°
2026-04-30 13:05 6.93520 101.95063 36894 ft 499 kts 169°
2026-04-30 13:06 6.83461 101.96917 36903 ft 498 kts 168°
2026-04-30 13:06 6.76833 101.98138 36896 ft 498 kts 168°
2026-04-30 13:07 6.70339 101.99335 36896 ft 497 kts 168°
2026-04-30 13:07 6.63828 102.00534 36890 ft 497 kts 168°
2026-04-30 13:08 6.57453 102.01708 36895 ft 497 kts 168°
2026-04-30 13:08 6.51001 102.02895 36892 ft 496 kts 168°
2026-04-30 13:09 6.44474 102.04097 36896 ft 496 kts 168°
2026-04-30 13:09 6.37974 102.05293 36887 ft 497 kts 168°
2026-04-30 13:10 6.31789 102.06430 36882 ft 497 kts 168°
2026-04-30 13:10 6.25200 102.07728 36898 ft 494 kts 160°
2026-04-30 13:11 6.18960 102.09784 36867 ft 494 kts 161°
2026-04-30 13:11 6.12859 102.11792 36870 ft 493 kts 161°
2026-04-30 13:12 6.06718 102.13808 36889 ft 493 kts 161°
2026-04-30 13:12 6.00595 102.15825 36894 ft 494 kts 161°
2026-04-30 13:13 5.91412 102.18841 36890 ft 494 kts 161°
2026-04-30 13:14 5.82437 102.21790 36898 ft 493 kts 161°
2026-04-30 13:14 5.73097 102.23888 36927 ft 496 kts 181°
2026-04-30 13:15 5.63659 102.22562 36913 ft 497 kts 188°
2026-04-30 13:16 5.57441 102.21531 36901 ft 498 kts 188°
2026-04-30 13:16 5.51264 102.20514 36909 ft 498 kts 188°
2026-04-30 13:17 5.41638 102.18885 36894 ft 496 kts 188°
2026-04-30 13:18 5.32573 102.17367 36895 ft 495 kts 188°
2026-04-30 13:18 5.23072 102.15770 36892 ft 495 kts 188°
2026-04-30 13:19 5.16735 102.14706 36901 ft 495 kts 188°
2026-04-30 13:19 5.10494 102.13658 36891 ft 495 kts 188°
2026-04-30 13:20 5.04173 102.12597 36887 ft 495 kts 188°
2026-04-30 13:20 4.97928 102.11548 36888 ft 496 kts 188°
2026-04-30 13:21 4.91957 102.10547 36894 ft 496 kts 188°
2026-04-30 13:22 4.82223 102.08913 36889 ft 495 kts 188°
2026-04-30 13:22 4.72647 102.07307 36885 ft 495 kts 188°
2026-04-30 13:23 4.63009 102.05691 36892 ft 496 kts 188°
2026-04-30 13:24 4.51562 102.03772 36887 ft 496 kts 188°
2026-04-30 13:26 4.28684 101.99939 35822 ft 496 kts 188°
2026-04-30 13:26 4.22232 101.98858 34665 ft 496 kts 188°
2026-04-30 13:27 4.15991 101.97813 33486 ft 495 kts 188°
2026-04-30 13:28 4.06503 101.96225 31802 ft 490 kts 188°
2026-04-30 13:28 4.00162 101.95163 30691 ft 486 kts 188°
2026-04-30 13:28 3.96966 101.94628 30125 ft 485 kts 188°
2026-04-30 13:29 3.90672 101.93579 28804 ft 479 kts 187°
2026-04-30 13:29 3.84584 101.92809 26828 ft 444 kts 185°
2026-04-30 13:30 3.76507 101.91680 24382 ft 403 kts 186°
2026-04-30 13:31 3.71540 101.91021 22913 ft 379 kts 186°
2026-04-30 13:31 3.64815 101.90096 21892 ft 320 kts 185°
2026-04-30 13:32 3.60622 101.89533 21408 ft 332 kts 185°
2026-04-30 13:32 3.56397 101.88951 20877 ft 323 kts 185°
2026-04-30 13:33 3.52425 101.88412 20383 ft 322 kts 185°
2026-04-30 13:33 3.48240 101.87841 19863 ft 320 kts 185°
2026-04-30 13:34 3.46210 101.87563 19660 ft 309 kts 185°
2026-04-30 13:34 3.40395 101.86771 18881 ft 287 kts 185°
2026-04-30 13:35 3.38610 101.86528 18647 ft 280 kts 185°
2026-04-30 13:35 3.35049 101.86042 18174 ft 267 kts 185°
2026-04-30 13:36 3.31587 101.85572 17711 ft 266 kts 185°
2026-04-30 13:36 3.29857 101.85338 17488 ft 266 kts 185°
2026-04-30 13:36 3.26551 101.84881 17065 ft 242 kts 185°
2026-04-30 13:37 3.25114 101.84687 16859 ft 232 kts 184°
2026-04-30 13:37 3.22110 101.84282 16492 ft 235 kts 184°
2026-04-30 13:38 3.18993 101.83855 16103 ft 229 kts 184°
2026-04-30 13:38 3.17516 101.83654 15923 ft 230 kts 184°
2026-04-30 13:38 3.14446 101.83238 15539 ft 232 kts 184°
2026-04-30 13:39 3.11470 101.82831 15162 ft 229 kts 184°
2026-04-30 13:39 3.08531 101.82430 14785 ft 224 kts 184°
2026-04-30 13:40 3.07111 101.82237 14609 ft 227 kts 184°
2026-04-30 13:40 3.05646 101.82040 14433 ft 230 kts 184°
2026-04-30 13:40 3.04207 101.81842 14237 ft 222 kts 184°
2026-04-30 13:40 3.03065 101.81686 14091 ft 223 kts 184°
2026-04-30 13:41 3.01631 101.81492 13921 ft 227 kts 184°
2026-04-30 13:41 3.00081 101.81281 13726 ft 228 kts 184°
2026-04-30 13:41 2.98642 101.81085 13526 ft 224 kts 184°
2026-04-30 13:41 2.97372 101.80910 13343 ft 219 kts 184°
2026-04-30 13:42 2.95863 101.80706 13148 ft 223 kts 184°
2026-04-30 13:42 2.94416 101.80511 12958 ft 225 kts 184°
2026-04-30 13:42 2.91633 101.80129 12593 ft 218 kts 184°
2026-04-30 13:43 2.90199 101.79936 12417 ft 223 kts 184°
2026-04-30 13:43 2.88793 101.79745 12233 ft 218 kts 184°
2026-04-30 13:43 2.87422 101.79556 12053 ft 216 kts 184°
2026-04-30 13:43 2.86039 101.79369 11880 ft 221 kts 184°
2026-04-30 13:44 2.84640 101.79179 11699 ft 217 kts 184°
2026-04-30 13:44 2.83267 101.78991 11519 ft 215 kts 184°
2026-04-30 13:44 2.81811 101.78794 11346 ft 219 kts 184°
2026-04-30 13:44 2.80414 101.78727 11106 ft 216 kts 166°
2026-04-30 13:45 2.78117 101.80033 10982 ft 209 kts 142°
2026-04-30 13:45 2.76952 101.80821 10745 ft 214 kts 142°
2026-04-30 13:45 2.75798 101.81596 10477 ft 210 kts 142°
2026-04-30 13:46 2.74660 101.82357 10226 ft 208 kts 142°
2026-04-30 13:46 2.73525 101.83118 9975 ft 206 kts 142°
2026-04-30 13:46 2.72393 101.83877 9708 ft 205 kts 142°
2026-04-30 13:46 2.71269 101.84631 9433 ft 204 kts 142°
2026-04-30 13:47 2.70191 101.85354 9183 ft 203 kts 142°
2026-04-30 13:47 2.69075 101.86102 8958 ft 204 kts 142°
2026-04-30 13:47 2.67949 101.86857 8699 ft 204 kts 142°
2026-04-30 13:47 2.66826 101.87609 8421 ft 201 kts 142°
2026-04-30 13:48 2.65716 101.88353 8188 ft 201 kts 142°
2026-04-30 13:48 2.64612 101.89095 7946 ft 200 kts 142°
2026-04-30 13:48 2.63512 101.89831 7697 ft 195 kts 142°
2026-04-30 13:48 2.62480 101.90522 7467 ft 194 kts 142°
2026-04-30 13:49 2.61438 101.91222 7234 ft 199 kts 142°
2026-04-30 13:49 2.60386 101.91928 6988 ft 199 kts 142°
2026-04-30 13:49 2.59277 101.92670 6736 ft 198 kts 142°
2026-04-30 13:49 2.58159 101.93419 6477 ft 198 kts 142°
2026-04-30 13:50 2.57068 101.94150 6234 ft 197 kts 142°
2026-04-30 13:50 2.54920 101.95591 5738 ft 195 kts 142°
2026-04-30 13:50 2.53736 101.96090 5419 ft 201 kts 172°
2026-04-30 13:51 2.52445 101.95828 5184 ft 206 kts 204°
2026-04-30 13:51 2.51514 101.94891 5029 ft 199 kts 238°
2026-04-30 13:51 2.50775 101.93753 4815 ft 213 kts 236°
2026-04-30 13:51 2.49978 101.92608 4525 ft 210 kts 236°
2026-04-30 13:52 2.49239 101.91534 4253 ft 202 kts 236°
2026-04-30 13:52 2.48528 101.90484 3995 ft 185 kts 236°
2026-04-30 13:52 2.47933 101.89597 3796 ft 183 kts 236°
2026-04-30 13:52 2.47578 101.88492 3417 ft 185 kts 272°
2026-04-30 13:53 2.48026 101.87478 3310 ft 168 kts 312°
2026-04-30 13:53 2.48962 101.86759 3392 ft 174 kts 332°
2026-04-30 13:53 2.49934 101.86186 3523 ft 172 kts 332°
2026-04-30 13:53 2.50809 101.85619 3540 ft 167 kts 330°
2026-04-30 13:54 2.51713 101.85009 3535 ft 160 kts 330°
2026-04-30 13:54 2.52574 101.84428 3523 ft 160 kts 329°
2026-04-30 13:54 2.53405 101.83868 3522 ft 160 kts 329°
2026-04-30 13:54 2.54313 101.83258 3527 ft 159 kts 329°
2026-04-30 13:55 2.55142 101.82700 3535 ft 158 kts 329°
2026-04-30 13:55 2.55720 101.82310 3500 ft 162 kts 329°
2026-04-30 13:55 2.56836 101.81556 3270 ft 159 kts 329°
2026-04-30 13:55 2.57694 101.80981 3074 ft 154 kts 329°
2026-04-30 13:56 2.58529 101.80416 2892 ft 157 kts 328°
2026-04-30 13:56 2.59076 101.80049 2766 ft 157 kts 328°
2026-04-30 13:56 2.59934 101.79474 2582 ft 158 kts 328°
2026-04-30 13:56 2.60773 101.78906 2377 ft 155 kts 328°
2026-04-30 13:57 2.61624 101.78336 2201 ft 155 kts 329°
2026-04-30 13:57 2.62726 101.77601 1960 ft 154 kts 328°
2026-04-30 13:57 2.63592 101.77016 1755 ft 153 kts 328°
2026-04-30 13:57 2.64428 101.76451 1578 ft 153 kts 328°
2026-04-30 13:58 2.65276 101.75882 1392 ft 154 kts 330°
2026-04-30 13:58 2.66912 101.74754 1145 ft 151 kts 325°
2026-04-30 13:58 2.67711 101.74177 968 ft 153 kts 326°
2026-04-30 13:59 2.68551 101.73669 907 ft 151 kts 331°
2026-04-30 13:59 2.69117 101.73299 807 ft 155 kts 326°
2026-04-30 13:59 2.69941 101.72736 569 ft 153 kts 328°
2026-04-30 13:59 2.70752 101.72185 254 ft 144 kts 324°
2026-04-30 14:00 2.71539 101.71665 55 ft 139 kts 326°
2026-04-30 14:00 2.72457 101.71048 54 ft 55 kts 326°
2026-04-30 14:00 2.72721 101.70871 53 ft 40 kts 326°
2026-04-30 14:01 2.72901 101.70754 55 ft 26 kts 335°
2026-04-30 14:01 2.73022 101.70710 55 ft 14 kts 347°
2026-04-30 14:01 2.73066 101.70702 63 ft 0 kts 351°
2026-04-30 14:01 2.73109 101.70697 60 ft 10 kts 355°
2026-04-30 14:02 2.73172 101.70693 58 ft 11 kts 356°
2026-04-30 14:02 2.73248 101.70688 60 ft 12 kts 356°
2026-04-30 14:02 2.73329 101.70677 55 ft 13 kts 345°
2026-04-30 14:02 2.73393 101.70650 56 ft 0 kts 328°
2026-04-30 14:03 2.73397 101.70648 56 ft 1 kts 328°
2026-04-30 14:03 2.73408 101.70641 56 ft 3 kts 329°
2026-04-30 14:03 2.73427 101.70629 53 ft 4 kts 327°
2026-04-30 14:03 2.73451 101.70613 56 ft 5 kts 326°
2026-04-30 14:04 2.73526 101.70563 58 ft 21 kts 327°
2026-04-30 14:04 2.73640 101.70490 55 ft 18 kts 340°
2026-04-30 14:04 2.73683 101.70500 58 ft 4 kts 39°
2026-04-30 14:04 2.73733 101.70563 55 ft 14 kts 56°
2026-04-30 14:05 2.73778 101.70630 61 ft 9 kts 55°
2026-04-30 14:05 2.73795 101.70655 72 ft 0 kts 55°
2026-04-30 14:05 2.73821 101.70693 71 ft 19 kts 56°
2026-04-30 14:05 2.73900 101.70808 72 ft 22 kts 55°
2026-04-30 14:06 2.73983 101.70931 70 ft 23 kts 56°
2026-04-30 14:06 2.74156 101.71181 67 ft 23 kts 55°
2026-04-30 14:07 2.74332 101.71442 68 ft 24 kts 56°
2026-04-30 14:07 2.74418 101.71569 69 ft 23 kts 56°
2026-04-30 14:07 2.74497 101.71685 71 ft 11 kts 51°
2026-04-30 14:08 2.74576 101.71680 69 ft 8 kts 327°
2026-04-30 14:08 2.74623 101.71648 67 ft 10 kts 327°
2026-04-30 14:08 2.74654 101.71583 74 ft 9 kts 243°
2026-04-30 14:09 2.74634 101.71553 69 ft 0 kts 236°